Weather in Lypova Dolyna

Ukraine / Sumi District     50˚33′47″N   33˚47′28″E
temp.,
°C
wind,
m/s
gust,
m/s
humid.,
%
clouds,
%
prec.,
mm/h
press.,
hPa
HPBL,
m
1 december, tue
tue123:00n4599100 0.6 1026146
02:00n3599100 0.6 1026126
05:00+1˚nne3599100 0.0 1026131
08:00+1˚ese3793100 0.1 1027248
11:00+1˚e3791100 0.0 1027351
14:00+2˚e4789100 0.0 1027493
17:00+1˚e4886100 0.0 1028491
20:00e4884100 0.0 1028571
2 december, wed
wed223:00e4884100 0.0 1029540
02:00−1˚e5991100 0.1 1029548
05:00−2˚e5995100 0.1 1028499
08:00−2˚ese5994100 0.4 1029517
11:00−1˚ese5889100 0.1 1029536
14:00−1˚ese4789100 0.2 1028483
17:00−2˚e5995100 0.3 1028450
20:00−2˚ese5996100 0.8 1028443
3 december, thu
thu323:00−2˚ese589795 0.8 1028421
02:00−2˚ese599697 1.8 1028410
05:00−2˚ese489693 0.5 1027351
08:00−2˚ese479796 1.0 1027323
11:00ese4797100 0.3 1026273
14:00ese35100100 0.4 1026209
17:00+1˚se35100100 0.1 1026139
20:00+1˚ese47100100 0.2 1026214
4 december, fri
fri423:00+1˚se4797100 0.0 1026195
02:00+1˚se489996 0.1 1026257
05:00+1˚ese48100100 0.1 1025261
08:00+1˚ese5999100 0.1 1026327
11:00+1˚ese5898100 0.0 1026395
14:00+1˚ese5897100 0.0 1025412
17:00+1˚ese61095100 0.0 1025441
20:00+1˚ese61293100 0.0 1026484
5 december, sat
sat523:00+1˚ese61094100 0.0 1026442
02:00+1˚se61193100 0.0 1026503
05:00+1˚ese61091100 0.0 1026588
08:00ese61090100 0.0 1027520
11:00se6108792 0.0 1027477
14:00+1˚ese6118494 0.0 1027451
17:00−1˚ese6128929 0.0 1028401
20:00−1˚se7139018 0.0 1029380